Regional Weather Roundup
Issued by NWS

Home | Current Version | Previous Version | Graphics & Text | Print | Product List | Glossary Off
Versions: 1 2 3 4 5 6 7 8 9 10 11 12 13 14 15 16 17 18 19 20 21 22 23 24 25 26 27 28 29 30 31 32 33 34 35 36 37 38 39 40 41 42 43 44 45 46 47 48 49 50

000
ASUS43 KTOP 251659
RWRKS

WEATHER ROUNDUP FOR KANSAS
NATIONAL WEATHER SERVICE GOODLAND KS
1100 AM CST TUE NOV 25 2014

NOTE:  "FAIR" INDICATES FEW OR NO CLOUDS BELOW 12,000 FEET WITH NO
SIGNIFICANT WEATHER AND/OR OBSTRUCTIONS TO VISIBILITY.

KSZ001>006-013>018-027>032-041>047-251800-
NORTHWEST KANSAS

CITY           SKY/WX    TMP DP  RH WIND       PRES   REMARKS
GOODLAND       CLOUDY    39  14  36 SW23G32   30.04F WCI  28
HAYS           SUNNY     43  21  42 SW14      30.14F
HILL CITY      MOSUNNY   44  21  40 SW15G24   30.10F
RUSSELL        SUNNY     43  25  49 SW18      30.13F
$$

KSZ061>065-074>080-084>089-251800-
SOUTHWEST KANSAS

CITY           SKY/WX    TMP DP  RH WIND       PRES   REMARKS
DODGE CITY     SUNNY     44  21  40 SW14      30.17F
ELKHART          N/A     44  15  31 SW15        N/A
GARDEN CITY    SUNNY    N/A N/A N/A SW16      30.14F
GREAT BEND     SUNNY     43  25  49 SW14      30.17F
LIBERAL        SUNNY     45  23  42 SW16      30.21F
$$

KSZ066>073-081>083-090>101-251800-
SOUTHEAST KANSAS

CITY           SKY/WX    TMP DP  RH WIND       PRES   REMARKS
CHANUTE        SUNNY     36  11  35 VRB3      30.25F
COFFEYVILLE    PTSUNNY   38  16  40 VRB5      30.27F
HUTCHINSON     SUNNY     44  23  43 SW13      30.19F
NEWTON         SUNNY     39  19  45 SW10      30.21F WCI  32
PARSONS        SUNNY     39  12  33 VRB3      30.27F
WICHITA INTL   SUNNY     42  20  41 SW9       30.22F
WICHITA JABRA  SUNNY     42  17  36 SW8       30.22F
WINFIELD       SUNNY     41  24  51 SW9       30.26F
$$

KSZ007>012-019>026-033>040-048>060-102>105-251800-
NORTHEAST KANSAS

CITY           SKY/WX    TMP DP  RH WIND       PRES   REMARKS
CONCORDIA      SUNNY     39  26  59 SW12      30.13F WCI  32
EMPORIA        SUNNY     39  14  36 SW8       30.21F
LAWRENCE       SUNNY     33   8  35 VRB5      30.23F
MANHATTAN      SUNNY     39  20  46 SW12      30.19F WCI  32
OLATHE IND     SUNNY     33  10  38 SW9       30.22F
OLATHE EXE     SUNNY     32  11  41 W8        30.21F
SALINA         SUNNY     43  24  47 SW12      30.19F
TOPEKA BILLARD SUNNY     37   9  31 VRB5      30.22F
TOPEKA FORBES  SUNNY     37   8  30 MISG      30.20F
$$


USA.gov is the U.S. government's official web portal to all federal, state and local government web resources and services.